Location: Cañada de la Miga
(34.7595°N, 106.2317°W)
Time: 11:16:07
(UTC+00:00)

A-11 Canister half - Pass Details

Date: 02 December 2021
Orbit: 1516 x 1684 km, 47.2° (Epoch: 16 January)

Event Time Altitude Azimuth Distance (km) Brightness Sun altitude
Rises 11:43:53 0° 187° (S) 4,693 11.6 -26.4°
Reaches altitude 10° 11:47:42 10° 174° (S) 3,737 11.2 -25.6°
Maximum altitude 11:54:44 24° 125° (SE) 2,849 11.0 -24.2°
Drops below altitude 10° 12:01:57 10° 77° (ENE) 3,848 12.0 -22.8°
Sets 12:05:53 0° 65° (ENE) 4,865 12.4 -22.0°
